Regional Weather Roundup
Issued by NWS

Home | Current Version | Previous Version | Graphics & Text | Print | Product List | Glossary On
Versions: 1 2 3 4 5 6 7 8 9 10 11 12 13 14 15 16 17 18 19 20 21 22 23 24 25 26 27 28 29 30 31 32 33 34 35 36 37 38 39 40 41 42 43 44 45 46 47 48 49 50
296
ASUS43 KLOT 102208
RWRIL

ILLINOIS REGIONAL WEATHER ROUNDUP
NATIONAL WEATHER SERVICE CHICAGO/ROMEOVILLE IL
400 PM CST WED FEB 10 2016

NOTE: "FAIR" INDICATES FEW OR NO CLOUDS BELOW 12,000 FEET WITH NO
SIGNIFICANT WEATHER AND/OR OBSTRUCTIONS TO VISIBILITY.

* THESE STATIONS ARE NOT UNDER NWS QUALITY CONTROL. THEY ALSO MAY NOT
  REPORT WEATHER SUCH AS PRECIPITATION OR FOG.

ILZ001-002-007-009-015-016-024-102300-
NORTHWEST ILLINOIS

CITY           SKY/WX    TMP DP  RH WIND       PRES   REMARKS
MOLINE         CLOUDY    19   2  47 NW8       30.08R WCI   9
STERLING*      MOSUNNY   19   3  49 W9        30.04R WCI   9
SAVANNA*       MOSUNNY   18   0  45 W6        30.07R WCI  10
$$

ILZ003-004-008-010-011-017-018-102300-
NORTH CENTRAL ILLINOIS

CITY           SKY/WX    TMP DP  RH WIND       PRES   REMARKS
ROCKFORD       PTSUNNY   17   1  49 NW8       30.07R WCI   7
FREEPORT*      SUNNY     14   2  59 W10       30.07R WCI   1
ROCHELLE*      SUNNY     17   4  57 NW7       30.05R WCI   8
DE KALB*       SUNNY     16   4  59 NW10G16   30.04R WCI   3
$$

ILZ005-006-012>014-019>023-102300-
NORTHEAST ILLINOIS

CITY           SKY/WX    TMP DP  RH WIND       PRES   REMARKS
CHICAGO-OHARE  MOSUNNY   17   2  51 NW13      30.03R WCI   4
CHICAGO-MIDWAY PTSUNNY   18   1  47 NW12      30.04R WCI   5
AURORA         SUNNY     17   4  56 NW14G23   30.05R WCI   3
LANSING*       MOSUNNY   18   3  51 W8        30.04R WCI   8
JOLIET*        MOSUNNY   20   5  53 W10       30.06R WCI   8
WAUKEGAN       CLOUDY    14   2  58 N9        30.03R WCI   2
DUPAGE AIRPORT SUNNY     17   2  51 NW14      30.03R WCI   3
KANKAKEE*      MOSUNNY   19   5  56 W10       30.06R WCI   7
WHEELING       MOSUNNY   15   1  53 NW12      30.05R WCI   2
MORRIS*        CLOUDY    19   6  57 NW7       30.04R WCI  10
ROMEOVILLE*    MOSUNNY   18   4  56 NW12      30.04R WCI   5
NORTHERLY ISL    N/A     19   4  51 W8          N/A  WCI   9
$$

LMZ740>746-102300-
SOUTHERN LAKE MICHIGAN

STATION/POSITION SKY/WX   TEMP    WIND        PRES    VSBY  WAVE
                          AIR SEA DIR/SP/G                  HT/PER
                          (F)     (DEG/KT/KT) (MB)    (MI)  (FT/S)
HARRISON CRIB              17     320/  9/ 10   N/A
BURNHAM HARBOR             19     300/  7/ 13   N/A
CALUMET HARBOR             18     270/  9/ 14 1016.1R
BURNS HARBOR               18     300/ 10/ 14 1016.9R
MICHIGAN CITY              16     280/ 15/ 18   N/A
$$

ILZ025>027-034>036-040-047-049-050-058-095>099-102300-
WEST-CENTRAL ILLINOIS

CITY           SKY/WX    TMP DP  RH WIND       PRES   REMARKS
QUINCY         CLOUDY    19  13  77 SE3       30.10R
GALESBURG*     CLOUDY    18   6  58 W7        30.08R WCI   9
MACOMB*        CLOUDY    19  13  79 W6        30.11R WCI  11
JACKSONVILLE*  LGT SNOW  21  16  83 SW8       30.11R WCI  11
PITTSFIELD*    LGT SNOW  20  16  83 S3        30.12R
$$

ILZ028>032-037-038-041>044-048-051>054-059>061-102300-
CENTRAL ILLINOIS

CITY           SKY/WX    TMP DP  RH WIND       PRES   REMARKS
PONTIAC        MOSUNNY   21   9  61 W10       30.07R WCI   9
BLOOMINGTON    CLOUDY    20   6  54 W10       30.07R WCI   9
DECATUR        CLOUDY    20   6  55 W9G17     30.09R WCI   9
PEORIA         CLOUDY    19   1  45 NW9       30.09R WCI   8
LACON*         MOSUNNY   19   2  49 NW6       30.08R WCI  10
LINCOLN*       CLOUDY    20   6  53 W7        30.10R WCI  12
SPRINGFIELD    CLOUDY    20  11  68 W9        30.11R WCI   9
TAYLORVILLE    FLURRIES  19  12  73 W10       30.11R WCI   8
$$

ILZ033-039-045-046-055>057-062-063-102300-
EAST-CENTRAL ILLINOIS

CITY           SKY/WX    TMP DP  RH WIND       PRES   REMARKS
CHAMPAIGN      CLOUDY    20   8  60 W15       30.07R WCI   6
RANTOUL*       PTSUNNY   22   9  57 W10       30.06S WCI  11
MATTOON        CLOUDY    19   6  57 W7        30.08S WCI  10
PARIS*         PTSUNNY   20   9  63 W10       30.09R WCI   8
$$

ILZ079-100>102-102300-
SOUTHWEST ILLINOIS

CITY           SKY/WX    TMP DP  RH WIND       PRES   REMARKS
ALTON          LGT SNOW  19  16  86 S6        30.13R WCI  11
BELLEVILLE     FLURRIES  21  18  87 SW7       30.14R WCI  13
CAHOKIA*       FLURRIES  22  15  75 VRB3      30.15R
SPARTA*        LGT SNOW  21  17  86 SW3       30.16R
$$

ILZ064>066-069>071-074>076-080>082-084>086-088>090-092>094-102300-
SOUTH-CENTRAL ILLINOIS

CITY           SKY/WX    TMP DP  RH WIND       PRES   REMARKS
CARBONDALE     LGT SNOW  21  17  84 SW5       30.17R FOG     WCI  15
CAIRO*         LGT SNOW  23  21  93 SW8       30.18R WCI  14
EFFINGHAM*     CLOUDY    22  10  59 W9        30.13R WCI  12
MARION         CLOUDY    23  18  80 SW7       30.17R WCI  15
MT. VERNON     CLOUDY    19  12  73 SW9       30.15R WCI   9
CENTRALIA*     LGT SNOW  21  18  88 W6        30.14R WCI  13
SALEM*         LGT SNOW  21  17  83 W7        30.14R VSB 1   WCI  13
METROPOLIS*    LGT SNOW  23  21  89 W6        30.18R WCI  16
$$

ILZ067-068-072-073-078-083-087-091-102300-
SOUTHEAST ILLINOIS

CITY           SKY/WX    TMP DP  RH WIND       PRES   REMARKS
LAWRENCEVILLE  CLOUDY    22   8  55 W14       30.13R WCI   9
FLORA*         CLOUDY    24  10  56 W10       30.14R WCI  13
FAIRFIELD*     FLURRIES  22  15  72 W5        30.14R WCI  16
HARRISBURG*    LGT SNOW  22  18  85 W9        30.17R WCI  12
ROBINSON*      CLOUDY    21   9  60 W13       30.13R WCI   8
CARMI*         CLOUDY    24  14  68 W9        30.14R WCI  14
$$

ABBREVIATIONS USED IN REMARKS
   TC - TEMPERATURE IN CELSIUS
  WCI - WIND CHILL INDEX
   HX - HEAT INDEX
  VSB - VISIBILITY
$$





USA.gov is the U.S. government's official web portal to all federal, state and local government web resources and services.